Find Yaogan 50 hao 02 xing

NORAD ID: 68196 Int'l Des: 2026-051 Owner: ZXW Country: CN Constellation: yaogan operational
LEORETROGRADE

リアルタイム位置

3D地球を読み込み中...

Yaogan 50 hao 02 xingについて

説明を読み込み中...

次回通過

Passes for default location (London). Set your location on the main map for personalized predictions.

高度履歴

Loading altitude history...

軌道要素

1 68196U 26051A 26120.92479883 .00000301 00000-0 10358-3 0 9999
2 68196 141.9850 99.3501 0001030 257.1198 102.9407 13.83258191 6442
Epoch: Apr 30, 2026 • Age: 11 hours

現在のステータス

高度 951.5 km
速度 7.38 km/s
衛星直下点 16.79°N, 88.7°E
打ち上げ日 Mar 15, 2026
運用期間 0.1 years
タイプ military

技術仕様

分類 Payload
質量 1500.00 kg
乾燥質量 1500.00 kg
総質量 1500.00 kg
長さ 4.00 m
直径 2.00 m
スパン 10.00 m
形状 Box + 2 Pan
製造者 CAST
バスタイプ YG50
フェーズステータス In Orbit
所有者/国 ZXW/CN

Most Searched